Time,TemperatureF,DewpointF,PressureIn,WindDirection,WindDirectionDegrees,WindSpeedMPH,WindSpeedGustMPH,Humidity,HourlyPrecipIn,Conditions,Clouds,dailyrainin,SoftwareType,DateUTC
2013-08-16 00:01:00,54.9,0.0,30.06,WNW,293,0.0,0.4,0,0.00,,,0.00,WUHU216HW,2013-08-16 04:01:00,
2013-08-16 00:06:00,54.7,0.0,30.07,NW,315,0.4,0.4,0,0.00,,,0.00,WUHU216HW,2013-08-16 04:06:00,
2013-08-16 00:11:00,54.7,0.0,30.06,NW,315,0.7,0.7,0,0.00,,,0.00,WUHU216HW,2013-08-16 04:11:00,
2013-08-16 00:16:00,54.5,0.0,30.07,NW,315,0.4,0.7,0,0.00,,,0.00,WUHU216HW,2013-08-16 04:16:00,
2013-08-16 00:21:00,54.5,0.0,30.07,NW,315,0.4,0.7,0,0.00,,,0.00,WUHU216HW,2013-08-16 04:21:00,
2013-08-16 00:26:00,54.5,0.0,30.07,NW,315,0.0,0.7,0,0.00,,,0.00,WUHU216HW,2013-08-16 04:26:00,
2013-08-16 00:31:00,54.4,0.0,30.06,WSW,248,0.9,0.9,0,0.00,,,0.00,WUHU216HW,2013-08-16 04:31:00,
2013-08-16 00:36:00,54.4,0.0,30.06,WSW,248,0.4,0.9,0,0.00,,,0.00,WUHU216HW,2013-08-16 04:36:00,
2013-08-16 00:41:00,54.4,0.0,30.07,WSW,248,0.4,0.9,0,0.00,,,0.00,WUHU216HW,2013-08-16 04:41:00,
2013-08-16 00:46:00,54.4,0.0,30.07,WSW,248,0.7,0.9,0,0.00,,,0.00,WUHU216HW,2013-08-16 04:46:00,
2013-08-16 00:51:00,54.4,0.0,30.07,WSW,248,0.7,1.1,0,0.00,,,0.00,WUHU216HW,2013-08-16 04:51:00,
2013-08-16 00:56:00,54.2,0.0,30.07,WSW,248,0.7,1.1,0,0.00,,,0.00,WUHU216HW,2013-08-16 04:56:00,
2013-08-16 01:01:00,54.2,0.0,30.07,WSW,248,0.9,1.1,0,0.00,,,0.00,WUHU216HW,2013-08-16 05:01:00,
2013-08-16 01:06:00,54.2,0.0,30.07,WNW,293,0.4,0.9,0,0.00,,,0.00,WUHU216HW,2013-08-16 05:06:00,
2013-08-16 01:11:00,54.0,0.0,30.07,West,270,0.7,0.9,0,0.00,,,0.00,WUHU216HW,2013-08-16 05:11:00,
2013-08-16 01:16:00,54.0,0.0,30.07,West,270,0.4,0.9,0,0.00,,,0.00,WUHU216HW,2013-08-16 05:16:00,
2013-08-16 01:21:00,53.8,0.0,30.07,West,270,0.4,0.9,0,0.00,,,0.00,WUHU216HW,2013-08-16 05:21:00,
2013-08-16 01:26:00,53.6,0.0,30.07,West,270,0.4,0.7,0,0.00,,,0.00,WUHU216HW,2013-08-16 05:26:00,
2013-08-16 01:31:00,53.6,0.0,30.07,West,270,0.0,0.7,0,0.00,,,0.00,WUHU216HW,2013-08-16 05:31:00,
2013-08-16 01:35:00,53.3,0.0,30.07,West,270,0.0,0.4,0,0.00,,,0.00,WUHU216HW,2013-08-16 05:35:00,
2013-08-16 01:40:00,53.1,0.0,30.07,West,270,0.0,0.4,0,0.00,,,0.00,WUHU216HW,2013-08-16 05:40:00,
2013-08-16 01:45:00,52.9,0.0,30.07,West,270,0.4,0.9,0,0.00,,,0.00,WUHU216HW,2013-08-16 05:45:00,
2013-08-16 01:50:00,52.7,0.0,30.06,West,270,0.2,0.9,0,0.00,,,0.00,WUHU216HW,2013-08-16 05:50:00,
2013-08-16 01:55:00,52.7,0.0,30.07,West,270,0.0,0.9,0,0.00,,,0.00,WUHU216HW,2013-08-16 05:55:00,
2013-08-16 02:00:00,52.7,0.0,30.07,West,270,0.0,0.9,0,0.00,,,0.00,WUHU216HW,2013-08-16 06:00:00,
2013-08-16 02:05:00,52.7,0.0,30.06,West,270,0.2,0.9,0,0.00,,,0.00,WUHU216HW,2013-08-16 06:05:00,
2013-08-16 02:10:00,52.7,0.0,30.06,West,270,0.2,0.9,0,0.00,,,0.00,WUHU216HW,2013-08-16 06:10:00,
2013-08-16 02:15:00,52.7,0.0,30.06,WNW,293,0.7,0.9,0,0.00,,,0.00,WUHU216HW,2013-08-16 06:15:00,
2013-08-16 02:20:00,52.6,0.0,30.06,WNW,293,0.7,0.9,0,0.00,,,0.00,WUHU216HW,2013-08-16 06:20:00,
2013-08-16 02:25:00,52.6,0.0,30.06,WNW,293,0.0,0.7,0,0.00,,,0.00,WUHU216HW,2013-08-16 06:25:00,
2013-08-16 02:30:00,52.4,0.0,30.06,WNW,293,0.0,0.4,0,0.00,,,0.00,WUHU216HW,2013-08-16 06:30:00,
2013-08-16 02:35:00,52.4,0.0,30.06,WNW,293,0.2,0.7,0,0.00,,,0.00,WUHU216HW,2013-08-16 06:35:00,
2013-08-16 02:40:00,52.2,0.0,30.06,West,270,0.7,0.9,0,0.00,,,0.00,WUHU216HW,2013-08-16 06:40:00,
2013-08-16 02:45:00,52.2,0.0,30.06,West,270,0.0,0.9,0,0.00,,,0.00,WUHU216HW,2013-08-16 06:45:00,
2013-08-16 02:50:00,52.2,0.0,30.06,West,270,0.0,0.7,0,0.00,,,0.00,WUHU216HW,2013-08-16 06:50:00,
2013-08-16 02:55:00,52.0,0.0,30.06,WSW,248,0.4,0.7,0,0.00,,,0.00,WUHU216HW,2013-08-16 06:55:00,
2013-08-16 03:00:00,51.8,0.0,30.06,WSW,248,0.9,0.9,0,0.00,,,0.00,WUHU216HW,2013-08-16 07:00:00,
2013-08-16 03:05:00,51.8,0.0,30.07,WSW,248,0.0,0.9,0,0.00,,,0.00,WUHU216HW,2013-08-16 07:05:00,
2013-08-16 03:10:00,52.0,0.0,30.06,WSW,248,0.7,0.9,0,0.00,,,0.00,WUHU216HW,2013-08-16 07:10:00,
2013-08-16 03:15:00,51.8,0.0,30.06,WSW,248,0.0,0.7,0,0.00,,,0.00,WUHU216HW,2013-08-16 07:15:00,
2013-08-16 03:20:00,51.7,0.0,30.06,WSW,248,0.2,0.7,0,0.00,,,0.00,WUHU216HW,2013-08-16 07:20:00,
2013-08-16 03:25:00,51.7,0.0,30.06,WSW,248,0.4,0.7,0,0.00,,,0.00,WUHU216HW,2013-08-16 07:25:00,
2013-08-16 03:30:00,51.7,0.0,30.06,WNW,293,0.9,1.1,0,0.00,,,0.00,WUHU216HW,2013-08-16 07:30:00,
2013-08-16 03:35:00,51.5,0.0,30.06,WNW,293,0.0,1.1,0,0.00,,,0.00,WUHU216HW,2013-08-16 07:35:00,
2013-08-16 03:40:00,51.5,0.0,30.06,WNW,293,0.0,1.1,0,0.00,,,0.00,WUHU216HW,2013-08-16 07:40:00,
2013-08-16 03:45:00,51.3,0.0,30.06,WNW,293,0.9,0.9,0,0.00,,,0.00,WUHU216HW,2013-08-16 07:45:00,
2013-08-16 03:50:00,51.1,0.0,30.06,WNW,293,0.0,1.1,0,0.00,,,0.00,WUHU216HW,2013-08-16 07:50:00,
2013-08-16 03:55:00,51.1,0.0,30.06,WNW,293,0.0,1.1,0,0.00,,,0.00,WUHU216HW,2013-08-16 07:55:00,
2013-08-16 04:00:00,50.9,0.0,30.06,WNW,293,0.0,0.2,0,0.00,,,0.00,WUHU216HW,2013-08-16 08:00:00,
2013-08-16 04:05:00,50.8,0.0,30.07,West,270,0.4,0.9,0,0.00,,,0.00,WUHU216HW,2013-08-16 08:05:00,
2013-08-16 04:10:00,50.8,0.0,30.07,West,270,0.9,1.1,0,0.00,,,0.00,WUHU216HW,2013-08-16 08:10:00,
2013-08-16 04:15:00,50.8,0.0,30.07,West,270,0.2,1.1,0,0.00,,,0.00,WUHU216HW,2013-08-16 08:15:00,
2013-08-16 04:20:00,50.8,0.0,30.07,West,270,0.0,0.9,0,0.00,,,0.00,WUHU216HW,2013-08-16 08:20:00,
2013-08-16 04:25:00,50.8,0.0,30.07,WSW,248,0.0,0.7,0,0.00,,,0.00,WUHU216HW,2013-08-16 08:25:00,
2013-08-16 04:30:00,50.8,0.0,30.07,West,270,0.2,1.3,0,0.00,,,0.00,WUHU216HW,2013-08-16 08:30:00,
2013-08-16 04:35:00,50.8,0.0,30.07,West,270,0.0,1.3,0,0.00,,,0.00,WUHU216HW,2013-08-16 08:35:00,
2013-08-16 04:40:00,50.6,0.0,30.07,West,270,0.0,0.4,0,0.00,,,0.00,WUHU216HW,2013-08-16 08:40:00,
2013-08-16 04:45:00,50.4,0.0,30.07,West,270,0.0,0.2,0,0.00,,,0.00,WUHU216HW,2013-08-16 08:45:00,
2013-08-16 04:50:00,50.2,0.0,30.07,West,270,0.0,0.2,0,0.00,,,0.00,WUHU216HW,2013-08-16 08:50:00,
2013-08-16 04:55:00,50.0,0.0,30.07,West,270,0.0,0.2,0,0.00,,,0.00,WUHU216HW,2013-08-16 08:55:00,
2013-08-16 05:00:00,50.0,0.0,30.07,West,270,0.0,0.4,0,0.00,,,0.00,WUHU216HW,2013-08-16 09:00:00,
2013-08-16 05:05:00,49.9,0.0,30.07,West,270,0.0,0.7,0,0.00,,,0.00,WUHU216HW,2013-08-16 09:05:00,
2013-08-16 05:10:00,49.9,0.0,30.07,West,270,0.4,0.7,0,0.00,,,0.00,WUHU216HW,2013-08-16 09:10:00,
2013-08-16 05:15:00,50.0,0.0,30.07,West,270,0.4,0.7,0,0.00,,,0.00,WUHU216HW,2013-08-16 09:15:00,
2013-08-16 05:20:00,50.0,0.0,30.07,West,270,0.0,0.7,0,0.00,,,0.00,WUHU216HW,2013-08-16 09:20:00,
2013-08-16 05:25:00,50.0,0.0,30.07,West,270,0.7,0.7,0,0.00,,,0.00,WUHU216HW,2013-08-16 09:25:00,
2013-08-16 05:30:00,50.0,0.0,30.08,West,270,0.7,1.1,0,0.00,,,0.00,WUHU216HW,2013-08-16 09:30:00,
2013-08-16 05:35:00,50.0,0.0,30.08,West,270,0.4,1.1,0,0.00,,,0.00,WUHU216HW,2013-08-16 09:35:00,
2013-08-16 05:40:00,49.9,0.0,30.08,WNW,293,0.7,1.1,0,0.00,,,0.00,WUHU216HW,2013-08-16 09:40:00,
2013-08-16 05:45:00,49.9,0.0,30.07,WNW,293,0.7,1.1,0,0.00,,,0.00,WUHU216HW,2013-08-16 09:45:00,
2013-08-16 05:50:00,49.9,0.0,30.07,WNW,293,0.4,1.1,0,0.00,,,0.00,WUHU216HW,2013-08-16 09:50:00,
2013-08-16 05:55:00,49.7,0.0,30.08,WNW,293,0.4,1.1,0,0.00,,,0.00,WUHU216HW,2013-08-16 09:55:00,
2013-08-16 06:00:00,49.7,0.0,30.08,WNW,293,0.4,1.1,0,0.00,,,0.00,WUHU216HW,2013-08-16 10:00:00,
2013-08-16 06:05:00,49.7,0.0,30.08,WNW,293,0.7,1.1,0,0.00,,,0.00,WUHU216HW,2013-08-16 10:05:00,
2013-08-16 06:10:00,50.0,0.0,30.08,West,270,0.0,1.1,0,0.00,,,0.00,WUHU216HW,2013-08-16 10:10:00,
2013-08-16 06:15:00,50.0,0.0,30.08,NW,315,0.0,1.1,0,0.00,,,0.00,WUHU216HW,2013-08-16 10:15:00,
2013-08-16 06:20:00,50.2,0.0,30.08,WSW,248,0.7,0.9,0,0.00,,,0.00,WUHU216HW,2013-08-16 10:20:00,
2013-08-16 06:25:00,50.6,0.0,30.08,WSW,248,0.0,0.9,0,0.00,,,0.00,WUHU216HW,2013-08-16 10:25:00,
2013-08-16 06:30:00,50.8,0.0,30.08,WSW,248,0.0,0.7,0,0.00,,,0.00,WUHU216HW,2013-08-16 10:30:00,
2013-08-16 06:35:00,50.9,0.0,30.08,WSW,248,0.0,0.0,0,0.00,,,0.00,WUHU216HW,2013-08-16 10:35:00,
2013-08-16 06:40:00,51.1,0.0,30.08,WSW,248,0.4,0.4,0,0.00,,,0.00,WUHU216HW,2013-08-16 10:40:00,
2013-08-16 06:45:00,51.5,0.0,30.08,WSW,248,0.0,0.4,0,0.00,,,0.00,WUHU216HW,2013-08-16 10:45:00,
2013-08-16 06:50:00,51.7,0.0,30.08,WSW,248,0.0,0.4,0,0.00,,,0.00,WUHU216HW,2013-08-16 10:50:00,
2013-08-16 06:55:00,51.8,0.0,30.08,West,270,0.0,0.4,0,0.00,,,0.00,WUHU216HW,2013-08-16 10:55:00,
2013-08-16 07:00:00,52.0,0.0,30.08,West,270,0.0,0.4,0,0.00,,,0.00,WUHU216HW,2013-08-16 11:00:00,
2013-08-16 07:05:00,52.2,0.0,30.08,West,270,0.0,0.0,0,0.00,,,0.00,WUHU216HW,2013-08-16 11:05:00,
2013-08-16 07:10:00,52.4,0.0,30.09,West,270,0.0,0.0,0,0.00,,,0.00,WUHU216HW,2013-08-16 11:10:00,
2013-08-16 07:15:00,52.7,0.0,30.09,West,270,0.0,0.0,0,0.00,,,0.00,WUHU216HW,2013-08-16 11:15:00,
2013-08-16 07:20:00,52.9,0.0,30.09,West,270,0.0,0.0,0,0.00,,,0.00,WUHU216HW,2013-08-16 11:20:00,
2013-08-16 07:25:00,53.5,0.0,30.09,West,270,0.0,0.2,0,0.00,,,0.00,WUHU216HW,2013-08-16 11:25:00,
2013-08-16 07:30:00,53.8,0.0,30.09,SW,225,0.4,1.6,0,0.00,,,0.00,WUHU216HW,2013-08-16 11:30:00,
2013-08-16 07:35:00,54.4,0.0,30.09,WSW,248,0.4,1.6,0,0.00,,,0.00,WUHU216HW,2013-08-16 11:35:00,
2013-08-16 07:40:00,55.1,0.0,30.10,SSW,203,0.0,1.6,0,0.00,,,0.00,WUHU216HW,2013-08-16 11:40:00,
2013-08-16 07:45:00,56.0,0.0,30.10,WSW,248,0.2,0.9,0,0.00,,,0.00,WUHU216HW,2013-08-16 11:45:00,
2013-08-16 07:50:00,56.9,0.0,30.09,WSW,248,1.1,1.1,0,0.00,,,0.00,WUHU216HW,2013-08-16 11:50:00,
2013-08-16 07:55:00,57.6,0.0,30.10,SW,225,0.4,1.6,0,0.00,,,0.00,WUHU216HW,2013-08-16 11:55:00,
2013-08-16 08:00:00,58.3,0.0,30.10,NNW,338,1.1,1.6,0,0.00,,,0.00,WUHU216HW,2013-08-16 12:00:00,
2013-08-16 08:05:00,58.9,0.0,30.10,NNW,338,0.9,1.6,0,0.00,,,0.00,WUHU216HW,2013-08-16 12:05:00,
2013-08-16 08:10:00,59.4,0.0,30.10,SSE,158,0.4,1.8,0,0.00,,,0.00,WUHU216HW,2013-08-16 12:10:00,
2013-08-16 08:15:00,60.1,0.0,30.10,NW,315,0.4,1.8,0,0.00,,,0.00,WUHU216HW,2013-08-16 12:15:00,
2013-08-16 08:20:00,60.5,0.0,30.10,East,90,0.2,0.9,0,0.00,,,0.00,WUHU216HW,2013-08-16 12:20:00,
2013-08-16 08:25:00,60.8,0.0,30.10,WSW,248,2.2,2.2,0,0.00,,,0.00,WUHU216HW,2013-08-16 12:25:00,
2013-08-16 08:30:00,61.2,0.0,30.09,WNW,293,2.0,2.5,0,0.00,,,0.00,WUHU216HW,2013-08-16 12:30:00,
2013-08-16 08:35:00,61.7,0.0,30.09,NW,315,0.9,4.0,0,0.00,,,0.00,WUHU216HW,2013-08-16 12:35:00,
2013-08-16 08:40:00,62.3,0.0,30.09,WSW,248,2.2,4.0,0,0.00,,,0.00,WUHU216HW,2013-08-16 12:40:00,
2013-08-16 08:45:00,62.6,0.0,30.09,WSW,248,4.5,6.0,0,0.00,,,0.00,WUHU216HW,2013-08-16 12:45:00,
2013-08-16 08:50:00,63.0,0.0,30.09,NNW,338,2.5,6.0,0,0.00,,,0.00,WUHU216HW,2013-08-16 12:50:00,
2013-08-16 08:55:00,63.0,0.0,30.09,WSW,248,4.3,7.2,0,0.00,,,0.00,WUHU216HW,2013-08-16 12:55:00,
2013-08-16 09:00:00,63.2,0.0,30.09,NNW,338,0.9,7.2,0,0.00,,,0.00,WUHU216HW,2013-08-16 13:00:00,
2013-08-16 09:05:00,63.4,0.0,30.09,WSW,248,4.7,7.2,0,0.00,,,0.00,WUHU216HW,2013-08-16 13:05:00,
2013-08-16 09:10:00,63.7,0.0,30.09,WNW,293,2.0,7.2,0,0.00,,,0.00,WUHU216HW,2013-08-16 13:10:00,
2013-08-16 09:15:00,64.1,0.0,30.09,WNW,293,3.4,4.9,0,0.00,,,0.00,WUHU216HW,2013-08-16 13:15:00,
2013-08-16 09:20:00,64.4,0.0,30.09,WNW,293,9.6,9.6,0,0.00,,,0.00,WUHU216HW,2013-08-16 13:20:00,
2013-08-16 09:25:00,65.0,0.0,30.10,NNW,338,2.0,9.6,0,0.00,,,0.00,WUHU216HW,2013-08-16 13:25:00,
2013-08-16 09:30:00,65.2,0.0,30.10,WSW,248,2.5,9.6,0,0.00,,,0.00,WUHU216HW,2013-08-16 13:30:00,
2013-08-16 09:35:00,65.5,0.0,30.10,WNW,293,3.8,5.6,0,0.00,,,0.00,WUHU216HW,2013-08-16 13:35:00,
2013-08-16 09:40:00,65.7,0.0,30.10,WNW,293,3.4,5.4,0,0.00,,,0.00,WUHU216HW,2013-08-16 13:40:00,
2013-08-16 09:45:00,65.9,0.0,30.10,SE,135,2.2,5.4,0,0.00,,,0.00,WUHU216HW,2013-08-16 13:45:00,
2013-08-16 09:50:00,66.1,0.0,30.10,WNW,293,1.3,6.3,0,0.00,,,0.00,WUHU216HW,2013-08-16 13:50:00,
2013-08-16 09:55:00,66.6,0.0,30.10,WSW,248,5.4,6.3,0,0.00,,,0.00,WUHU216HW,2013-08-16 13:55:00,
2013-08-16 10:00:00,67.3,0.0,30.10,West,270,3.4,5.6,0,0.00,,,0.00,WUHU216HW,2013-08-16 14:00:00,
2013-08-16 10:05:00,68.4,0.0,30.10,SSW,203,1.1,5.6,0,0.00,,,0.00,WUHU216HW,2013-08-16 14:05:00,
2013-08-16 10:10:00,69.7,0.0,30.10,SSE,158,5.6,5.6,0,0.00,,,0.00,WUHU216HW,2013-08-16 14:10:00,
2013-08-16 10:15:00,70.9,0.0,30.10,WSW,248,5.4,6.9,0,0.00,,,0.00,WUHU216HW,2013-08-16 14:15:00,
2013-08-16 10:20:00,71.8,0.0,30.10,SW,225,4.0,7.2,0,0.00,,,0.00,WUHU216HW,2013-08-16 14:20:00,
2013-08-16 10:25:00,72.5,0.0,30.11,NNW,338,4.0,7.2,0,0.00,,,0.00,WUHU216HW,2013-08-16 14:25:00,
2013-08-16 10:30:00,73.1,0.0,30.10,West,270,4.3,6.0,0,0.00,,,0.00,WUHU216HW,2013-08-16 14:30:00,
2013-08-16 10:35:00,73.1,0.0,30.10,NW,315,4.7,7.4,0,0.00,,,0.00,WUHU216HW,2013-08-16 14:35:00,
2013-08-16 10:40:00,73.4,0.0,30.10,WNW,293,3.4,7.4,0,0.00,,,0.00,WUHU216HW,2013-08-16 14:40:00,
2013-08-16 10:45:00,74.0,0.0,30.10,West,270,2.5,6.9,0,0.00,,,0.00,WUHU216HW,2013-08-16 14:45:00,
2013-08-16 10:50:00,74.5,0.0,30.10,WNW,293,5.6,6.9,0,0.00,,,0.00,WUHU216HW,2013-08-16 14:50:00,
2013-08-16 10:55:00,75.1,0.0,30.10,WSW,248,2.2,6.7,0,0.00,,,0.00,WUHU216HW,2013-08-16 14:55:00,
2013-08-16 11:00:00,75.4,0.0,30.10,West,270,3.4,6.7,0,0.00,,,0.00,WUHU216HW,2013-08-16 15:00:00,
2013-08-16 11:05:00,75.6,0.0,30.10,SSE,158,1.1,5.1,0,0.00,,,0.00,WUHU216HW,2013-08-16 15:05:00,
2013-08-16 11:10:00,75.8,0.0,30.10,West,270,2.9,6.3,0,0.00,,,0.00,WUHU216HW,2013-08-16 15:10:00,
2013-08-16 11:15:00,76.0,0.0,30.10,SSW,203,2.0,7.4,0,0.00,,,0.00,WUHU216HW,2013-08-16 15:15:00,
2013-08-16 11:20:00,76.0,0.0,30.10,WSW,248,5.4,7.4,0,0.00,,,0.00,WUHU216HW,2013-08-16 15:20:00,
2013-08-16 11:25:00,76.3,0.0,30.10,NW,315,6.5,9.2,0,0.00,,,0.00,WUHU216HW,2013-08-16 15:25:00,
2013-08-16 11:30:00,76.0,0.0,30.10,West,270,4.5,9.2,0,0.00,,,0.00,WUHU216HW,2013-08-16 15:30:00,
2013-08-16 11:35:00,75.6,0.0,30.10,WNW,293,3.6,6.5,0,0.00,,,0.00,WUHU216HW,2013-08-16 15:35:00,
2013-08-16 11:40:00,76.0,0.0,30.11,West,270,1.3,7.6,0,0.00,,,0.00,WUHU216HW,2013-08-16 15:40:00,
2013-08-16 11:45:00,76.1,0.0,30.10,WSW,248,3.1,8.3,0,0.00,,,0.00,WUHU216HW,2013-08-16 15:45:00,
2013-08-16 11:50:00,76.5,0.0,30.10,NW,315,4.0,8.3,0,0.00,,,0.00,WUHU216HW,2013-08-16 15:50:00,
2013-08-16 11:55:00,76.9,0.0,30.10,NW,315,2.0,6.3,0,0.00,,,0.00,WUHU216HW,2013-08-16 15:55:00,
2013-08-16 12:00:00,77.0,0.0,30.10,NW,315,2.5,5.8,0,0.00,,,0.00,WUHU216HW,2013-08-16 16:00:00,
2013-08-16 12:05:00,77.2,0.0,30.10,SW,225,2.9,5.8,0,0.00,,,0.00,WUHU216HW,2013-08-16 16:05:00,
2013-08-16 12:10:00,77.4,0.0,30.10,NW,315,1.8,7.4,0,0.00,,,0.00,WUHU216HW,2013-08-16 16:10:00,
2013-08-16 12:15:00,76.7,0.0,30.10,NNW,338,5.1,7.4,0,0.00,,,0.00,WUHU216HW,2013-08-16 16:15:00,
2013-08-16 12:20:00,76.1,0.0,30.10,NW,315,4.3,6.7,0,0.00,,,0.00,WUHU216HW,2013-08-16 16:20:00,
2013-08-16 12:25:00,76.0,0.0,30.10,WNW,293,3.8,6.3,0,0.00,,,0.00,WUHU216HW,2013-08-16 16:25:00,
2013-08-16 12:30:00,76.0,0.0,30.10,West,270,5.6,7.2,0,0.00,,,0.00,WUHU216HW,2013-08-16 16:30:00,
2013-08-16 12:35:00,76.1,0.0,30.10,NNW,338,1.8,8.1,0,0.00,,,0.00,WUHU216HW,2013-08-16 16:35:00,
2013-08-16 12:40:00,77.0,0.0,30.10,NNW,338,1.1,8.1,0,0.00,,,0.00,WUHU216HW,2013-08-16 16:40:00,
2013-08-16 12:45:00,77.8,0.0,30.10,WSW,248,1.3,5.6,0,0.00,,,0.00,WUHU216HW,2013-08-16 16:45:00,
2013-08-16 12:50:00,77.9,0.0,30.10,NNW,338,2.2,5.6,0,0.00,,,0.00,WUHU216HW,2013-08-16 16:50:00,
2013-08-16 12:55:00,78.1,0.0,30.10,NW,315,4.7,4.9,0,0.00,,,0.00,WUHU216HW,2013-08-16 16:55:00,
2013-08-16 13:00:00,77.6,0.0,30.10,WNW,293,1.6,4.9,0,0.00,,,0.00,WUHU216HW,2013-08-16 17:00:00,
2013-08-16 13:05:00,76.7,0.0,30.10,WNW,293,3.8,4.9,0,0.00,,,0.00,WUHU216HW,2013-08-16 17:05:00,
2013-08-16 13:10:00,76.0,0.0,30.10,NW,315,2.5,4.7,0,0.00,,,0.00,WUHU216HW,2013-08-16 17:10:00,
2013-08-16 13:15:00,76.1,0.0,30.10,West,270,3.6,4.7,0,0.00,,,0.00,WUHU216HW,2013-08-16 17:15:00,
2013-08-16 13:20:00,76.9,0.0,30.10,WNW,293,4.3,4.7,0,0.00,,,0.00,WUHU216HW,2013-08-16 17:20:00,
2013-08-16 13:25:00,77.2,0.0,30.10,South,180,1.1,5.1,0,0.00,,,0.00,WUHU216HW,2013-08-16 17:25:00,
2013-08-16 13:30:00,76.9,0.0,30.10,NW,315,3.4,6.3,0,0.00,,,0.00,WUHU216HW,2013-08-16 17:30:00,
2013-08-16 13:35:00,76.5,0.0,30.10,SW,225,0.9,6.3,0,0.00,,,0.00,WUHU216HW,2013-08-16 17:35:00,
2013-08-16 13:39:00,77.0,0.0,30.10,WNW,293,2.5,5.1,0,0.00,,,0.00,WUHU216HW,2013-08-16 17:39:00,
2013-08-16 13:44:00,77.4,0.0,30.10,WSW,248,2.5,4.7,0,0.00,,,0.00,WUHU216HW,2013-08-16 17:44:00,
2013-08-16 13:49:00,77.4,0.0,30.10,West,270,0.4,5.1,0,0.00,,,0.00,WUHU216HW,2013-08-16 17:49:00,
2013-08-16 13:54:00,77.2,0.0,30.10,WSW,248,2.0,5.1,0,0.00,,,0.00,WUHU216HW,2013-08-16 17:54:00,
2013-08-16 13:59:00,77.0,0.0,30.10,South,180,1.1,3.6,0,0.00,,,0.00,WUHU216HW,2013-08-16 17:59:00,
2013-08-16 14:04:00,77.2,0.0,30.10,WSW,248,3.8,3.8,0,0.00,,,0.00,WUHU216HW,2013-08-16 18:04:00,
2013-08-16 14:09:00,77.6,0.0,30.10,South,180,0.9,6.3,0,0.00,,,0.00,WUHU216HW,2013-08-16 18:09:00,
2013-08-16 14:14:00,77.9,0.0,30.10,WSW,248,2.9,6.3,0,0.00,,,0.00,WUHU216HW,2013-08-16 18:14:00,
2013-08-16 14:19:00,78.1,0.0,30.10,SW,225,6.5,7.6,0,0.00,,,0.00,WUHU216HW,2013-08-16 18:19:00,
2013-08-16 14:24:00,78.3,0.0,30.10,WSW,248,4.0,7.6,0,0.00,,,0.00,WUHU216HW,2013-08-16 18:24:00,
2013-08-16 14:29:00,78.3,0.0,30.10,SE,135,1.8,6.7,0,0.00,,,0.00,WUHU216HW,2013-08-16 18:29:00,
2013-08-16 14:34:00,78.5,0.0,30.10,SE,135,1.3,4.9,0,0.00,,,0.00,WUHU216HW,2013-08-16 18:34:00,
2013-08-16 14:39:00,78.8,0.0,30.10,South,180,0.7,4.5,0,0.00,,,0.00,WUHU216HW,2013-08-16 18:39:00,
2013-08-16 14:44:00,78.8,0.0,30.10,WNW,293,1.6,4.0,0,0.00,,,0.00,WUHU216HW,2013-08-16 18:44:00,
2013-08-16 14:49:00,78.5,0.0,30.10,WSW,248,2.5,4.0,0,0.00,,,0.00,WUHU216HW,2013-08-16 18:49:00,
2013-08-16 14:54:00,77.8,0.0,30.10,West,270,2.2,3.4,0,0.00,,,0.00,WUHU216HW,2013-08-16 18:54:00,
2013-08-16 14:59:00,77.4,0.0,30.10,NW,315,3.4,3.4,0,0.00,,,0.00,WUHU216HW,2013-08-16 18:59:00,
2013-08-16 15:04:00,77.8,0.0,30.09,SE,135,1.3,4.0,0,0.00,,,0.00,WUHU216HW,2013-08-16 19:04:00,
2013-08-16 15:09:00,79.0,0.0,30.09,SSW,203,2.5,4.0,0,0.00,,,0.00,WUHU216HW,2013-08-16 19:09:00,
2013-08-16 15:14:00,79.6,0.0,30.09,West,270,2.2,3.8,0,0.00,,,0.00,WUHU216HW,2013-08-16 19:14:00,
2013-08-16 15:19:00,79.7,0.0,30.09,WSW,248,2.5,6.7,0,0.00,,,0.00,WUHU216HW,2013-08-16 19:19:00,
2013-08-16 15:24:00,80.3,0.0,30.09,East,90,2.7,6.7,0,0.00,,,0.00,WUHU216HW,2013-08-16 19:24:00,
2013-08-16 15:29:00,80.5,0.0,30.09,SSE,158,3.1,6.5,0,0.00,,,0.00,WUHU216HW,2013-08-16 19:29:00,
2013-08-16 15:34:00,80.5,0.0,30.09,WSW,248,2.2,6.5,0,0.00,,,0.00,WUHU216HW,2013-08-16 19:34:00,
2013-08-16 15:39:00,80.6,0.0,30.09,ENE,68,1.1,3.1,0,0.00,,,0.00,WUHU216HW,2013-08-16 19:39:00,
2013-08-16 15:44:00,80.6,0.0,30.09,West,270,2.5,6.3,0,0.00,,,0.00,WUHU216HW,2013-08-16 19:44:00,
2013-08-16 15:49:00,80.6,0.0,30.09,West,270,2.9,6.3,0,0.00,,,0.00,WUHU216HW,2013-08-16 19:49:00,
2013-08-16 15:54:00,80.6,0.0,30.08,WSW,248,3.1,5.4,0,0.00,,,0.00,WUHU216HW,2013-08-16 19:54:00,
2013-08-16 15:59:00,80.5,0.0,30.08,WNW,293,1.1,4.5,0,0.00,,,0.00,WUHU216HW,2013-08-16 19:59:00,
2013-08-16 16:04:00,79.7,0.0,30.08,WSW,248,1.6,2.9,0,0.00,,,0.00,WUHU216HW,2013-08-16 20:04:00,
2013-08-16 16:09:00,78.8,0.0,30.08,WNW,293,0.4,2.0,0,0.00,,,0.00,WUHU216HW,2013-08-16 20:09:00,
2013-08-16 16:14:00,77.9,0.0,30.08,SW,225,0.4,1.6,0,0.00,,,0.00,WUHU216HW,2013-08-16 20:14:00,
2013-08-16 16:19:00,78.1,0.0,30.08,WSW,248,0.7,1.6,0,0.00,,,0.00,WUHU216HW,2013-08-16 20:19:00,
2013-08-16 16:24:00,78.8,0.0,30.08,WNW,293,1.1,2.5,0,0.00,,,0.00,WUHU216HW,2013-08-16 20:24:00,
2013-08-16 16:29:00,79.6,0.0,30.08,WNW,293,1.1,3.4,0,0.00,,,0.00,WUHU216HW,2013-08-16 20:29:00,
2013-08-16 16:34:00,80.3,0.0,30.08,West,270,1.1,4.0,0,0.00,,,0.00,WUHU216HW,2013-08-16 20:34:00,
2013-08-16 16:39:00,79.9,0.0,30.08,WSW,248,1.3,4.0,0,0.00,,,0.00,WUHU216HW,2013-08-16 20:39:00,
2013-08-16 16:44:00,78.8,0.0,30.08,WSW,248,1.3,4.0,0,0.00,,,0.00,WUHU216HW,2013-08-16 20:44:00,
2013-08-16 16:49:00,78.7,0.0,30.08,West,270,1.8,2.9,0,0.00,,,0.00,WUHU216HW,2013-08-16 20:49:00,
2013-08-16 16:54:00,79.2,0.0,30.08,WNW,293,2.0,4.0,0,0.00,,,0.00,WUHU216HW,2013-08-16 20:54:00,
2013-08-16 16:59:00,79.4,0.0,30.08,WSW,248,1.1,4.0,0,0.00,,,0.00,WUHU216HW,2013-08-16 20:59:00,
2013-08-16 17:04:00,79.9,0.0,30.09,West,270,0.7,3.4,0,0.00,,,0.00,WUHU216HW,2013-08-16 21:04:00,
2013-08-16 17:09:00,80.3,0.0,30.08,West,270,2.2,4.7,0,0.00,,,0.00,WUHU216HW,2013-08-16 21:09:00,
2013-08-16 17:14:00,80.5,0.0,30.08,WSW,248,1.1,4.7,0,0.00,,,0.00,WUHU216HW,2013-08-16 21:14:00,
2013-08-16 17:19:00,80.6,0.0,30.08,SSW,203,0.2,3.6,0,0.00,,,0.00,WUHU216HW,2013-08-16 21:19:00,
2013-08-16 17:24:00,81.0,0.0,30.08,SSW,203,2.0,2.5,0,0.00,,,0.00,WUHU216HW,2013-08-16 21:24:00,
2013-08-16 17:29:00,81.2,0.0,30.08,WSW,248,2.7,2.7,0,0.00,,,0.00,WUHU216HW,2013-08-16 21:29:00,
2013-08-16 17:34:00,81.0,0.0,30.09,SSW,203,1.1,2.7,0,0.00,,,0.00,WUHU216HW,2013-08-16 21:34:00,
2013-08-16 17:39:00,80.8,0.0,30.09,West,270,0.4,2.7,0,0.00,,,0.00,WUHU216HW,2013-08-16 21:39:00,
2013-08-16 17:44:00,80.5,0.0,30.08,WSW,248,2.9,3.4,0,0.00,,,0.00,WUHU216HW,2013-08-16 21:44:00,
2013-08-16 17:49:00,80.3,0.0,30.09,West,270,0.4,3.4,0,0.00,,,0.00,WUHU216HW,2013-08-16 21:49:00,
2013-08-16 17:54:00,80.3,0.0,30.09,West,270,0.4,3.6,0,0.00,,,0.00,WUHU216HW,2013-08-16 21:54:00,
2013-08-16 17:59:00,80.5,0.0,30.09,WSW,248,1.1,3.6,0,0.00,,,0.00,WUHU216HW,2013-08-16 21:59:00,
2013-08-16 18:04:00,80.1,0.0,30.09,West,270,0.4,2.2,0,0.00,,,0.00,WUHU216HW,2013-08-16 22:04:00,
2013-08-16 18:09:00,79.9,0.0,30.10,SW,225,1.3,2.5,0,0.00,,,0.00,WUHU216HW,2013-08-16 22:09:00,
2013-08-16 18:14:00,79.6,0.0,30.09,SW,225,1.1,2.5,0,0.00,,,0.00,WUHU216HW,2013-08-16 22:14:00,
2013-08-16 18:19:00,78.7,0.0,30.09,SW,225,1.3,2.0,0,0.00,,,0.00,WUHU216HW,2013-08-16 22:19:00,
2013-08-16 18:24:00,77.6,0.0,30.09,WSW,248,1.8,1.8,0,0.00,,,0.00,WUHU216HW,2013-08-16 22:24:00,
2013-08-16 18:29:00,76.7,0.0,30.09,WSW,248,0.4,1.8,0,0.00,,,0.00,WUHU216HW,2013-08-16 22:29:00,
2013-08-16 18:34:00,75.8,0.0,30.09,SW,225,0.0,1.8,0,0.00,,,0.00,WUHU216HW,2013-08-16 22:34:00,
2013-08-16 18:39:00,75.2,0.0,30.10,SW,225,0.4,1.3,0,0.00,,,0.00,WUHU216HW,2013-08-16 22:39:00,
2013-08-16 18:44:00,74.5,0.0,30.10,SW,225,0.4,1.3,0,0.00,,,0.00,WUHU216HW,2013-08-16 22:44:00,
2013-08-16 18:49:00,73.8,0.0,30.10,SW,225,0.4,1.1,0,0.00,,,0.00,WUHU216HW,2013-08-16 22:49:00,
2013-08-16 18:54:00,73.3,0.0,30.10,SW,225,0.4,1.1,0,0.00,,,0.00,WUHU216HW,2013-08-16 22:54:00,
2013-08-16 18:59:00,72.5,0.0,30.10,SW,225,0.0,0.7,0,0.00,,,0.00,WUHU216HW,2013-08-16 22:59:00,
2013-08-16 19:04:00,71.8,0.0,30.10,West,270,0.0,1.3,0,0.00,,,0.00,WUHU216HW,2013-08-16 23:04:00,
2013-08-16 19:09:00,71.3,0.0,30.10,WSW,248,0.0,1.3,0,0.00,,,0.00,WUHU216HW,2013-08-16 23:09:00,
2013-08-16 19:14:00,70.7,0.0,30.10,WSW,248,0.0,0.4,0,0.00,,,0.00,WUHU216HW,2013-08-16 23:14:00,
2013-08-16 19:19:00,70.2,0.0,30.10,SW,225,0.0,1.1,0,0.00,,,0.00,WUHU216HW,2013-08-16 23:19:00,
2013-08-16 19:24:00,69.5,0.0,30.11,SW,225,0.0,1.1,0,0.00,,,0.00,WUHU216HW,2013-08-16 23:24:00,
2013-08-16 19:29:00,69.1,0.0,30.11,SW,225,0.0,0.7,0,0.00,,,0.00,WUHU216HW,2013-08-16 23:29:00,
2013-08-16 19:34:00,68.4,0.0,30.11,SW,225,0.0,0.4,0,0.00,,,0.00,WUHU216HW,2013-08-16 23:34:00,
2013-08-16 19:39:00,68.0,0.0,30.11,SW,225,0.0,0.4,0,0.00,,,0.00,WUHU216HW,2013-08-16 23:39:00,
2013-08-16 19:44:00,67.5,0.0,30.11,SW,225,0.0,0.4,0,0.00,,,0.00,WUHU216HW,2013-08-16 23:44:00,
2013-08-16 19:49:00,67.3,0.0,30.11,SW,225,0.0,0.4,0,0.00,,,0.00,WUHU216HW,2013-08-16 23:49:00,
2013-08-16 19:54:00,66.8,0.0,30.11,SW,225,0.0,0.0,0,0.00,,,0.00,WUHU216HW,2013-08-16 23:54:00,
2013-08-16 19:59:00,66.2,0.0,30.11,SW,225,0.0,0.0,0,0.00,,,0.00,WUHU216HW,2013-08-16 23:59:00,
2013-08-16 20:04:00,65.9,0.0,30.11,SW,225,0.0,0.0,0,0.00,,,0.00,WUHU216HW,2013-08-17 00:04:00,
2013-08-16 20:09:00,65.5,0.0,30.11,SW,225,0.0,0.0,0,0.00,,,0.00,WUHU216HW,2013-08-17 00:09:00,
2013-08-16 20:14:00,65.0,0.0,30.11,SW,225,0.0,0.0,0,0.00,,,0.00,WUHU216HW,2013-08-17 00:14:00,
2013-08-16 20:19:00,64.6,0.0,30.11,SW,225,0.0,0.0,0,0.00,,,0.00,WUHU216HW,2013-08-17 00:19:00,
2013-08-16 20:24:00,64.1,0.0,30.11,SW,225,0.0,0.4,0,0.00,,,0.00,WUHU216HW,2013-08-17 00:24:00,
2013-08-16 20:29:00,63.7,0.0,30.11,WSW,248,0.0,0.9,0,0.00,,,0.00,WUHU216HW,2013-08-17 00:29:00,
2013-08-16 20:34:00,63.4,0.0,30.12,WSW,248,1.1,1.1,0,0.00,,,0.00,WUHU216HW,2013-08-17 00:34:00,
2013-08-16 20:39:00,63.0,0.0,30.12,West,270,0.0,1.1,0,0.00,,,0.00,WUHU216HW,2013-08-17 00:39:00,
2013-08-16 20:44:00,62.6,0.0,30.13,West,270,0.0,1.1,0,0.00,,,0.00,WUHU216HW,2013-08-17 00:44:00,
2013-08-16 20:49:00,62.5,0.0,30.13,West,270,0.0,0.0,0,0.00,,,0.00,WUHU216HW,2013-08-17 00:49:00,
2013-08-16 20:54:00,62.1,0.0,30.13,West,270,0.0,0.0,0,0.00,,,0.00,WUHU216HW,2013-08-17 00:54:00,
2013-08-16 20:59:00,61.7,0.0,30.13,West,270,0.0,0.0,0,0.00,,,0.00,WUHU216HW,2013-08-17 00:59:00,
2013-08-16 21:04:00,61.6,0.0,30.13,West,270,0.4,0.4,0,0.00,,,0.00,WUHU216HW,2013-08-17 01:04:00,
2013-08-16 21:09:00,61.2,0.0,30.13,West,270,0.0,0.4,0,0.00,,,0.00,WUHU216HW,2013-08-17 01:09:00,
2013-08-16 21:14:00,61.0,0.0,30.14,West,270,0.4,0.7,0,0.00,,,0.00,WUHU216HW,2013-08-17 01:14:00,
2013-08-16 21:19:00,60.8,0.0,30.14,West,270,0.7,0.9,0,0.00,,,0.00,WUHU216HW,2013-08-17 01:19:00,
2013-08-16 21:24:00,60.8,0.0,30.14,West,270,0.4,0.9,0,0.00,,,0.00,WUHU216HW,2013-08-17 01:24:00,
2013-08-16 21:29:00,60.7,0.0,30.14,West,270,0.0,0.7,0,0.00,,,0.00,WUHU216HW,2013-08-17 01:29:00,
2013-08-16 21:34:00,60.5,0.0,30.14,West,270,0.4,0.4,0,0.00,,,0.00,WUHU216HW,2013-08-17 01:34:00,
2013-08-16 21:39:00,60.3,0.0,30.14,West,270,0.0,0.4,0,0.00,,,0.00,WUHU216HW,2013-08-17 01:39:00,
2013-08-16 21:44:00,60.1,0.0,30.14,West,270,0.0,0.4,0,0.00,,,0.00,WUHU216HW,2013-08-17 01:44:00,
2013-08-16 21:49:00,59.9,0.0,30.14,West,270,0.0,0.4,0,0.00,,,0.00,WUHU216HW,2013-08-17 01:49:00,
2013-08-16 21:54:00,59.8,0.0,30.14,West,270,0.0,0.4,0,0.00,,,0.00,WUHU216HW,2013-08-17 01:54:00,
2013-08-16 21:59:00,59.6,0.0,30.14,West,270,0.0,0.4,0,0.00,,,0.00,WUHU216HW,2013-08-17 01:59:00,
2013-08-16 22:04:00,59.4,0.0,30.14,West,270,0.4,0.7,0,0.00,,,0.00,WUHU216HW,2013-08-17 02:04:00,
2013-08-16 22:09:00,59.4,0.0,30.14,West,270,0.0,0.7,0,0.00,,,0.00,WUHU216HW,2013-08-17 02:09:00,
2013-08-16 22:14:00,59.0,0.0,30.14,West,270,0.4,0.4,0,0.00,,,0.00,WUHU216HW,2013-08-17 02:14:00,
2013-08-16 22:19:00,58.9,0.0,30.14,West,270,0.0,0.7,0,0.00,,,0.00,WUHU216HW,2013-08-17 02:19:00,
2013-08-16 22:24:00,58.7,0.0,30.14,West,270,0.0,0.7,0,0.00,,,0.00,WUHU216HW,2013-08-17 02:24:00,
2013-08-16 22:29:00,58.7,0.0,30.14,West,270,0.0,0.7,0,0.00,,,0.00,WUHU216HW,2013-08-17 02:29:00,
2013-08-16 22:34:00,58.5,0.0,30.14,West,270,0.0,0.0,0,0.00,,,0.00,WUHU216HW,2013-08-17 02:34:00,
2013-08-16 22:39:00,58.3,0.0,30.14,West,270,0.2,0.4,0,0.00,,,0.00,WUHU216HW,2013-08-17 02:39:00,
2013-08-16 22:44:00,58.0,0.0,30.14,West,270,0.0,0.4,0,0.00,,,0.00,WUHU216HW,2013-08-17 02:44:00,
2013-08-16 22:49:00,58.0,0.0,30.15,West,270,1.1,1.1,0,0.00,,,0.00,WUHU216HW,2013-08-17 02:49:00,
2013-08-16 22:54:00,58.0,0.0,30.15,West,270,0.4,1.1,0,0.00,,,0.00,WUHU216HW,2013-08-17 02:54:00,
2013-08-16 22:59:00,58.0,0.0,30.15,West,270,0.4,1.3,0,0.00,,,0.00,WUHU216HW,2013-08-17 02:59:00,
2013-08-16 23:04:00,58.0,0.0,30.15,West,270,0.4,1.3,0,0.00,,,0.00,WUHU216HW,2013-08-17 03:04:00,
2013-08-16 23:09:00,58.0,0.0,30.15,West,270,0.4,1.3,0,0.00,,,0.00,WUHU216HW,2013-08-17 03:09:00,
2013-08-16 23:14:00,58.0,0.0,30.15,West,270,0.4,1.1,0,0.00,,,0.00,WUHU216HW,2013-08-17 03:14:00,
2013-08-16 23:19:00,57.8,0.0,30.15,West,270,0.4,1.1,0,0.00,,,0.00,WUHU216HW,2013-08-17 03:19:00,
2013-08-16 23:24:00,57.8,0.0,30.15,West,270,0.9,0.9,0,0.00,,,0.00,WUHU216HW,2013-08-17 03:24:00,
2013-08-16 23:29:00,57.6,0.0,30.15,West,270,0.4,0.9,0,0.00,,,0.00,WUHU216HW,2013-08-17 03:29:00,
2013-08-16 23:34:00,57.6,0.0,30.15,West,270,0.0,0.9,0,0.00,,,0.00,WUHU216HW,2013-08-17 03:34:00,
2013-08-16 23:39:00,57.2,0.0,30.15,West,270,0.2,0.4,0,0.00,,,0.00,WUHU216HW,2013-08-17 03:39:00,
2013-08-16 23:44:00,57.2,0.0,30.15,West,270,0.0,0.4,0,0.00,,,0.00,WUHU216HW,2013-08-17 03:44:00,
2013-08-16 23:49:00,56.9,0.0,30.15,West,270,0.0,0.4,0,0.00,,,0.00,WUHU216HW,2013-08-17 03:49:00,
2013-08-16 23:54:00,56.7,0.0,30.15,West,270,0.0,0.0,0,0.00,,,0.00,WUHU216HW,2013-08-17 03:54:00,
2013-08-16 23:59:00,56.5,0.0,30.15,West,270,0.7,1.1,0,0.00,,,0.00,WUHU216HW,2013-08-17 03:59:00,